Tracking 28052 objects as of 22-Sep-2023
HD Live streaming from Space Station
objects crossing your sky now

COSMOS 1818 COOLANT

Track COSMOS 1818 COOLANT now!
10-day predictions


NORAD ID: 34174
Int'l Code: 1987-011E
Perigee: 764.2 km
Apogee: 791.0 km
Inclination: 65.0 °
Period: 100.3 minutes
Semi major axis: 7148 km
RCS: 0.0023 m2 (small)
Launch date: February 1, 1987
Source: Commonwealth of Independent States (former USSR) (CIS)
Launch site: TYURATAM MISSILE AND SPACE COMPLEX (TTMTR)

Note: This is SATELLITE DEBRIS
Your satellite tracking list
Your tracking list is empty




NASA's NSSDC Master Catalog

Two Line Element Set (TLE):
1 34174U 87011E   23259.93809711  .00001598  00000-0  57793-3 0  9992
2 34174  65.0037 134.0179 0018720 286.9614  86.4088 14.36381250199287
Source of the keplerian elements: AFSPC